Theta_e
343 344 343 347 347 346 348 350 352 352 351 350 350 350 350 351 352 352 352 352 352 352 352 352 351 352 351 351 351 351 350 349 349 348 348 348 347 347 347 347 347 346 345 343 342 342 343 343 343 343 344 346 346 346 346 347 346 345 345 345 347 348 348 348 347 347 347 347 349 349 348 347 348 348 348 347 347 346 345 345 345 343 344 346 349
341 344 341 346 347 346 346 350 351 352 351 351 350 350 350 351 352 352 352 352 352 352 352 352 351 351 351 351 351 350 350 349 350 349 348 347 347 347 347 347 346 346 345 344 343 343 342 342 342 343 343 344 344 345 345 346 345 344 344 345 345 346 347 347 347 346 346 345 345 346 345 346 346 346 347 346 345 345 344 344 344 342 343 347 348
344 342 341 343 345 347 346 348 351 351 351 351 351 350 350 351 351 351 351 351 351 350 351 350 350 351 351 351 351 350 349 349 348 348 348 347 347 347 346 346 346 345 344 344 344 343 341 340 340 341 342 342 343 343 344 344 343 343 344 344 346 347 347 347 346 346 345 344 343 343 342 344 344 344 345 345 345 344 342 343 343 342 341 347 347
344 344 343 342 343 345 345 347 349 351 351 351 350 350 349 349 349 349 349 349 350 350 350 350 350 351 351 350 350 350 349 349 349 348 348 347 347 346 345 346 346 345 343 342 342 342 341 340 340 340 339 340 341 342 342 342 342 343 344 345 345 347 347 346 345 345 344 343 342 340 339 336 339 343 344 344 344 344 341 342 342 342 343 344 346
345 347 344 341 342 343 343 342 348 350 351 350 349 349 349 349 349 348 348 348 348 348 349 349 349 350 350 350 349 350 349 349 348 348 348 347 347 346 346 346 346 344 341 342 341 340 340 340 340 339 339 338 339 339 340 341 343 344 344 344 345 346 346 346 345 344 343 342 341 338 335 336 336 341 342 342 341 340 340 341 341 342 342 342 344
346 348 345 339 343 343 344 345 348 350 351 350 349 349 349 348 349 348 348 347 347 348 348 348 349 349 349 349 349 350 349 348 348 347 347 348 347 346 346 345 345 343 341 340 339 340 339 340 339 339 338 337 338 338 339 341 342 343 343 344 345 346 345 345 344 342 341 340 339 335 334 335 336 337 342 341 339 337 337 338 339 341 341 342 342
347 348 345 345 341 344 343 345 350 350 350 350 350 349 349 349 348 348 347 347 347 347 347 347 348 348 348 349 348 348 348 348 347 348 347 347 347 346 345 344 344 342 341 339 338 337 338 339 339 338 338 337 337 337 339 341 342 343 344 344 345 345 345 344 342 341 340 337 334 334 334 334 335 336 342 341 339 337 336 337 338 338 339 339 339
348 348 347 345 344 343 344 349 349 350 350 350 349 349 348 348 349 348 347 347 347 347 347 347 347 347 347 347 347 348 348 349 348 348 347 347 346 345 344 344 343 341 340 339 337 337 339 340 339 338 337 336 337 337 339 340 341 342 343 344 344 344 344 343 341 340 339 334 333 333 333 334 334 335 340 340 339 337 336 336 337 337 336 336 334
346 348 346 344 344 343 345 347 349 351 350 350 349 348 348 348 349 348 347 347 346 346 346 346 347 347 347 347 347 347 348 347 348 347 346 346 345 345 344 344 342 341 340 339 337 336 337 338 338 337 336 336 336 338 339 340 341 341 343 343 343 343 342 341 340 338 336 334 333 333 333 333 334 334 340 339 339 336 335 334 334 335 335 334 334
346 348 346 343 344 342 344 347 349 351 350 349 349 349 348 348 348 347 346 346 346 346 346 346 346 346 347 347 347 347 347 347 347 347 346 345 345 344 343 342 340 340 339 338 337 336 336 336 337 336 336 335 335 337 339 339 340 341 342 342 343 342 341 339 337 335 331 331 332 332 336 339 331 335 338 339 338 336 333 333 332 332 332 334 334
346 347 347 344 342 343 347 349 347 349 349 349 349 349 349 348 348 347 347 346 346 345 345 346 346 347 347 347 347 347 347 347 346 345 345 344 344 343 342 341 340 339 338 337 335 335 336 336 336 335 335 335 335 336 337 338 339 340 341 341 340 339 337 334 332 328 328 328 329 328 333 339 333 332 339 338 337 336 333 332 333 332 333 334 335
344 346 347 342 342 341 346 348 347 349 349 349 349 349 349 348 349 347 347 346 346 346 346 346 346 347 347 347 347 347 347 346 346 345 345 344 343 343 342 340 339 337 336 335 333 332 333 335 335 335 334 333 333 336 337 337 338 339 340 339 338 336 333 331 327 326 326 326 327 329 328 329 332 335 339 339 337 335 334 332 333 333 333 333 333
342 345 345 344 340 339 344 347 346 349 349 348 348 349 349 348 348 347 347 346 346 346 346 346 346 346 347 347 347 346 346 346 344 345 345 343 343 342 341 339 338 336 334 332 330 330 332 332 334 335 334 332 334 335 335 337 337 337 337 336 334 332 330 329 324 325 325 326 327 327 327 328 329 337 336 337 337 335 333 333 332 333 333 332 332
343 345 345 346 343 341 341 344 346 347 345 348 346 348 348 348 347 347 346 346 346 345 346 346 346 347 347 346 346 345 345 344 344 344 342 342 342 341 340 339 337 335 332 330 328 328 330 331 333 334 333 333 333 333 334 336 336 336 334 332 331 329 326 325 325 322 324 324 326 327 327 330 331 336 336 336 335 335 333 332 332 332 332 332 332
343 345 345 346 344 342 339 340 342 343 344 347 345 347 348 347 348 347 347 347 346 345 345 346 346 346 345 345 345 344 344 344 343 343 343 342 341 341 339 338 336 333 330 328 327 327 328 329 332 332 331 331 332 332 332 333 334 333 332 330 328 326 323 319 320 320 321 323 324 326 327 329 335 337 337 335 333 333 333 332 332 332 331 331 331
342 343 344 344 344 343 343 341 338 339 340 342 343 346 347 347 347 347 346 347 346 346 346 346 346 345 345 345 345 344 344 343 343 343 341 341 341 340 338 337 335 332 329 327 325 326 327 328 330 329 329 330 330 330 329 331 331 330 329 327 325 323 321 319 316 317 318 319 321 324 326 330 336 335 334 335 333 331 332 332 332 332 331 331 330
332 338 341 342 343 343 343 343 339 335 336 337 338 342 344 346 347 347 346 346 346 346 346 346 345 345 345 345 345 344 343 343 342 341 341 341 340 339 337 336 334 331 330 327 325 325 324 327 327 326 326 327 327 327 327 328 329 328 326 325 323 320 318 316 311 312 315 318 319 321 325 330 334 333 333 333 333 332 331 331 330 331 331 330 330
321 323 324 327 329 334 342 343 342 341 341 335 334 336 339 342 344 344 343 344 345 345 345 344 345 344 343 341 340 340 341 342 341 341 341 340 339 338 336 336 334 331 331 330 328 325 323 322 322 322 322 322 323 324 324 325 325 324 323 322 320 317 314 311 304 304 308 315 314 320 324 334 334 332 332 331 331 331 331 331 331 330 330 330 329
318 319 318 319 319 324 327 340 342 342 341 340 340 336 334 336 340 340 340 342 342 341 341 341 340 339 339 337 336 335 334 335 336 337 338 336 335 332 335 335 334 332 330 329 328 326 323 321 320 319 319 319 321 320 320 321 320 320 319 318 316 314 311 306 301 300 302 306 310 314 322 331 334 333 332 332 331 330 330 329 330 329 329 329 330
316 316 316 316 317 321 323 325 326 337 341 341 340 338 331 332 336 337 338 340 338 338 337 336 331 330 330 330 328 331 330 330 327 332 332 333 332 330 332 335 333 332 330 329 327 326 324 321 318 317 318 317 318 319 318 318 318 316 315 313 312 310 304 302 300 300 300 305 310 311 324 327 333 335 335 337 336 337 336 336 335 335 335 334 330
315 315 315 314 315 319 319 321 324 323 334 341 340 337 334 329 330 329 330 333 334 333 332 326 322 321 323 322 326 334 333 331 331 331 325 331 324 326 331 334 332 331 330 329 328 328 326 322 319 318 318 316 313 314 316 317 316 315 313 309 306 302 302 301 300 301 302 304 309 314 323 324 327 331 332 334 335 335 335 334 335 334 334 335 332
311 312 314 314 314 316 316 319 321 323 321 337 340 340 336 333 336 333 332 330 329 325 328 330 328 328 323 328 334 333 334 333 331 329 331 328 327 324 326 331 332 331 330 330 329 328 325 322 321 321 319 316 311 302 304 310 313 312 309 306 299 298 300 300 300 300 302 304 310 318 322 324 326 329 329 330 329 329 330 331 332 332 335 335 334
310 311 312 312 313 314 316 317 319 322 321 326 338 339 338 337 337 336 334 330 329 328 332 330 331 330 330 332 331 333 334 333 331 330 331 324 328 323 326 329 330 330 329 330 328 327 325 324 322 320 317 312 305 303 304 304 304 308 305 301 299 299 299 300 300 300 301 306 309 321 323 324 326 328 328 328 327 327 329 330 330 330 332 333 334
307 308 309 311 312 313 314 315 316 319 320 319 328 340 338 338 339 337 336 334 333 333 334 334 333 332 332 333 333 333 334 334 328 325 326 329 326 322 323 324 324 324 323 323 324 324 323 322 320 316 312 307 305 305 306 306 306 305 304 303 302 301 300 299 299 299 301 306 312 320 323 325 326 326 327 327 326 326 328 329 329 329 329 329 329
302 304 306 308 310 311 312 315 316 318 319 319 321 334 339 338 339 338 336 334 333 333 333 333 333 333 334 333 334 332 333 333 330 330 331 330 329 328 327 327 325 323 320 317 315 314 313 310 310 309 307 307 307 306 308 307 307 307 306 304 303 302 301 300 299 299 301 304 313 319 320 322 324 326 327 327 326 325 326 328 328 328 328 329 329
302 303 304 306 307 309 311 313 315 317 319 319 319 324 332 338 338 336 335 335 333 333 333 333 333 333 331 330 331 333 332 332 330 329 330 330 328 328 327 327 326 324 322 318 315 313 312 310 309 308 307 307 307 307 307 307 307 307 306 305 303 302 300 299 299 299 300 303 310 317 318 320 323 325 326 327 326 325 325 326 327 327 327 328 328
302 303 304 304 306 307 309 312 315 318 321 318 323 327 331 336 336 336 334 332 332 330 329 329 330 330 329 328 330 329 328 329 328 326 326 328 328 328 327 326 325 324 323 321 316 314 312 310 309 308 308 308 307 307 307 307 307 307 306 304 302 300 299 298 298 297 298 300 305 313 315 318 322 324 326 327 326 326 326 327 327 327 327 327 327
303 304 304 304 305 307 309 310 316 319 320 323 327 328 329 331 330 329 330 327 327 326 326 326 326 326 327 328 327 328 328 327 327 326 326 327 326 326 325 325 326 325 324 321 317 314 312 311 310 309 309 308 307 307 307 307 307 306 304 302 300 299 298 297 297 297 296 297 298 306 311 315 318 320 323 324 325 325 326 326 327 327 328 327 327
305 306 307 309 311 311 313 317 318 319 322 327 326 327 328 327 327 326 325 323 325 324 324 324 324 324 324 325 327 326 326 325 325 325 326 325 324 325 325 324 324 323 322 321 319 316 313 311 309 309 309 309 308 307 306 306 305 304 302 300 298 297 297 296 296 296 295 294 293 298 305 308 313 317 319 322 323 324 324 325 325 326 326 326 326
306 307 309 311 312 314 316 319 321 324 326 326 325 325 324 323 323 322 321 319 321 322 322 322 323 322 322 322 323 324 323 322 322 322 321 320 320 321 320 320 320 320 320 318 318 317 315 311 307 307 307 307 306 306 305 303 302 301 300 298 297 296 296 296 295 294 293 292 292 292 300 303 306 311 315 317 319 321 324 324 324 325 325 325 325
307 307 308 310 312 314 316 318 322 324 324 323 322 321 320 319 319 318 318 317 318 317 318 319 320 321 320 320 320 320 320 320 320 319 319 318 318 318 318 318 318 317 316 313 313 310 308 306 304 304 304 303 302 302 303 301 300 299 298 297 296 296 295 295 294 293 292 292 291 291 292 298 301 304 308 313 315 317 320 323 324 323 323 324 324
306 307 308 310 312 312 314 316 319 319 319 318 317 316 314 314 314 313 313 314 315 315 315 316 315 317 318 318 318 318 317 317 317 316 316 315 315 314 314 313 312 312 311 310 307 306 305 304 304 302 302 302 302 301 301 300 298 297 296 295 295 294 294 293 293 293 292 292 291 290 290 291 296 299 301 307 311 313 314 316 319 320 320 322 323
305 306 308 310 310 311 311 313 316 316 316 314 314 313 312 312 312 311 311 312 312 312 312 313 314 315 316 315 315 315 315 314 314 314 313 313 313 312 311 310 309 308 308 307 307 306 305 304 302 302 302 301 301 300 300 298 296 295 295 294 293 293 292 292 292 292 291 291 291 290 289 289 288 293 296 299 304 309 310 312 313 316 318 318 320
304 305 308 308 309 310 311 311 312 312 312 312 312 310 310 310 310 310 310 310 309 309 309 310 311 312 312 311 312 312 312 312 312 311 311 310 310 309 308 307 307 305 305 304 303 303 302 302 300 299 299 298 298 298 297 296 294 294 293 292 292 291 291 291 290 290 290 289 289 289 289 289 288 287 288 294 298 303 307 308 309 311 313 314 315
302 305 307 307 308 308 309 309 309 309 310 310 309 308 309 308 308 308 307 308 308 308 308 308 308 308 308 308 308 308 308 309 309 309 308 307 307 306 306 305 304 302 299 299 298 298 298 297 298 297 296 296 296 296 296 294 293 292 291 291 290 290 290 289 289 289 288 288 288 287 288 288 288 288 287 286 291 297 302 304 306 308 310 312 313
301 304 305 306 306 307 308 307 307 307 307 307 307 306 306 305 305 305 304 304 304 305 305 305 306 305 305 305 305 305 306 306 305 305 304 304 304 303 303 301 299 298 297 296 295 294 294 294 294 296 296 295 296 294 294 293 292 291 291 290 289 289 287 287 287 287 287 287 287 286 286 286 287 288 290 285 285 289 298 300 302 304 307 307 310
304 303 304 305 305 306 306 306 305 306 304 304 305 303 304 303 302 302 302 302 302 301 302 303 303 303 303 303 303 302 303 304 303 303 303 302 301 300 300 299 298 296 294 293 293 293 293 292 291 292 295 294 294 293 293 292 292 291 290 289 288 288 286 286 285 285 286 285 285 286 286 285 287 289 286 286 285 285 290 296 298 299 301 304 306
305 303 303 304 304 304 304 304 304 304 303 303 303 301 301 300 299 299 299 300 301 301 300 300 300 301 301 301 301 300 300 300 301 301 300 299 299 299 299 298 296 295 293 292 290 290 290 291 290 290 292 293 293 292 292 292 292 291 290 289 288 287 286 286 286 287 284 284 284 284 285 284 284 284 284 285 284 284 285 288 293 293 295 300 303
303 303 303 303 302 303 303 303 302 302 301 300 300 299 299 298 298 298 296 296 296 297 298 297 298 298 298 298 298 298 298 297 298 298 298 297 296 296 296 296 295 294 292 291 290 290 290 290 290 288 289 290 291 291 291 291 291 290 289 289 288 288 287 287 286 284 283 283 286 286 285 284 284 284 283 284 284 284 284 284 284 284 286 296 300
304 304 303 303 302 302 302 302 301 301 301 300 299 298 298 297 296 297 295 295 295 294 294 294 295 294 295 295 295 294 295 296 296 296 295 295 294 293 292 293 293 292 290 289 289 288 289 289 289 290 289 288 287 287 289 290 288 288 288 287 286 286 286 286 285 284 283 282 282 283 283 283 283 283 282 283 283 283 283 283 285 284 285 289 295
304 303 303 302 302 301 300 299 300 300 299 299 298 298 297 296 296 295 293 293 294 293 292 292 293 293 293 293 293 293 294 294 294 294 293 293 292 292 291 291 290 289 288 287 286 285 286 287 286 288 289 288 285 284 284 286 288 286 286 286 286 286 286 284 283 283 283 281 281 282 281 282 282 282 281 282 282 282 282 282 283 283 284 284 286
301 301 302 302 302 302 300 299 300 300 300 300 298 298 297 296 295 293 292 292 292 291 290 291 291 292 292 291 291 291 291 292 292 292 292 292 291 290 289 288 288 287 286 285 285 286 284 285 287 285 283 284 282 282 283 285 287 284 284 284 285 284 286 283 283 282 282 282 281 282 281 281 281 281 281 281 281 281 281 281 282 282 283 284 284
302 302 302 302 301 301 300 300 300 300 300 299 298 295 294 294 293 292 290 289 290 290 290 290 290 290 289 289 290 289 290 291 291 291 291 290 289 288 287 286 285 286 285 284 283 283 283 283 284 285 283 282 283 283 282 283 284 283 283 284 283 281 285 281 282 282 281 281 281 281 281 280 280 280 280 280 280 280 281 281 281 282 282 283 283
301 301 301 301 301 301 300 300 299 298 297 296 295 294 292 291 291 290 290 289 288 289 289 289 289 289 288 288 288 288 289 289 289 288 288 287 287 286 285 284 284 284 284 284 283 282 283 282 283 284 284 281 280 282 283 282 283 285 285 283 281 280 280 277 278 279 278 279 280 280 280 280 279 280 280 279 279 279 280 280 280 281 282 282 283
300 300 300 300 300 300 300 299 297 297 295 294 293 292 291 290 289 289 289 289 289 288 288 287 288 288 287 287 286 287 287 287 287 286 286 285 285 285 284 284 284 283 284 284 283 282 282 281 281 282 281 282 280 279 282 282 281 283 284 279 278 278 278 276 276 277 278 278 279 278 281 279 279 280 279 279 279 279 280 280 280 280 281 281 282
300 300 299 299 299 298 298 298 297 295 294 293 292 291 290 289 289 288 287 287 287 287 287 285 286 286 285 285 286 285 285 284 284 285 285 285 284 284 284 284 283 284 284 283 283 282 282 282 281 281 281 281 282 280 280 282 281 282 281 280 279 277 277 278 275 276 276 277 277 278 278 279 278 278 278 279 279 278 281 279 279 280 280 281 281
300 300 299 298 298 297 297 297 296 294 294 292 292 292 290 291 292 291 290 289 287 284 284 285 285 284 285 284 284 283 283 284 284 283 284 284 284 284 283 283 283 283 284 283 282 282 282 282 282 282 281 283 281 280 280 280 280 281 280 280 280 278 276 274 276 275 273 275 276 276 277 278 278 277 278 278 278 278 278 279 278 279 278 280 280
299 297 297 297 296 296 296 295 294 293 293 292 292 292 291 291 290 290 289 288 286 284 283 283 283 284 284 283 283 282 283 283 283 283 283 284 283 283 283 283 283 282 283 282 282 281 282 282 282 281 281 280 280 280 278 277 278 279 281 279 279 279 278 278 275 276 275 273 274 275 274 278 277 276 277 277 278 278 277 278 278 279 278 279 280
297 295 296 296 296 296 295 294 293 292 292 291 291 291 291 290 289 287 285 285 284 283 284 284 283 283 282 282 282 282 282 282 282 283 282 283 284 283 282 282 282 282 282 281 281 281 280 280 280 281 280 280 280 279 279 278 279 279 277 277 277 276 276 277 275 275 275 273 272 273 274 275 275 274 276 275 277 278 277 277 279 278 280 279 279
297 295 295 295 295 295 294 293 292 292 292 291 291 289 289 289 288 286 284 283 283 283 283 282 282 281 282 281 281 281 281 282 282 281 282 282 282 282 282 282 281 282 282 281 280 280 280 280 280 280 280 280 279 279 279 277 278 276 277 277 276 275 275 276 276 274 274 274 274 273 273 273 273 274 276 275 276 277 277 277 276 277 277 278 278
296 295 294 294 294 294 294 292 292 292 292 291 289 288 288 287 286 285 284 283 283 282 282 281 281 281 281 280 281 281 281 281 281 281 281 281 282 282 281 281 282 282 281 280 280 280 280 280 279 279 279 279 279 279 279 278 278 278 277 277 276 277 277 276 275 275 274 274 272 272 273 274 274 273 274 276 278 276 276 276 275 276 277 278 278
Wind_Speed
3 5 4 6 7 4 6 11 14 14 13 13 12 11 10 9 8 9 9 10 11 11 12 11 12 12 13 14 14 15 15 16 16 17 17 17 17 17 17 17 16 15 16 15 15 14 14 13 13 13 13 12 12 13 13 14 14 15 15 15 15 14 14 15 16 15 16 17 19 19 18 18 19 19 19 19 19 19 18 18 15 11 8 13 19
6 4 3 4 8 7 3 7 13 13 13 13 12 11 10 10 9 9 9 11 11 11 11 12 12 12 13 13 14 15 16 16 16 16 17 16 16 16 16 16 15 15 15 15 15 14 14 14 13 13 13 12 12 12 12 14 14 14 14 15 15 14 14 15 15 16 17 16 16 16 16 18 18 18 18 18 18 18 17 17 17 10 7 16 19
6 6 2 3 6 7 5 5 11 12 13 12 12 11 10 10 10 10 9 9 11 12 11 11 11 12 12 13 14 15 15 16 16 16 16 16 15 15 15 15 15 15 15 15 15 15 15 15 15 14 14 13 13 12 12 13 14 14 14 15 15 14 15 15 15 15 16 16 15 15 14 16 18 17 17 17 17 17 17 17 17 15 10 19 16
7 7 5 6 6 5 7 6 9 12 12 12 12 11 10 10 10 10 10 10 11 11 10 10 10 11 12 12 14 14 14 15 15 15 15 15 15 15 14 15 15 15 15 16 17 17 16 16 16 15 15 14 13 13 13 13 14 14 14 14 14 14 15 15 15 14 14 13 13 10 7 6 10 17 17 17 17 17 16 16 17 17 18 16 19
7 7 7 5 5 7 11 6 9 12 12 13 12 12 11 11 10 10 10 9 10 11 11 11 11 11 12 12 12 13 14 14 14 14 14 14 14 15 14 15 15 16 16 17 17 16 16 16 15 15 15 14 13 13 13 13 14 14 14 13 13 15 15 14 14 14 13 13 11 7 6 6 5 14 16 17 17 17 16 16 16 16 16 17 17
8 6 10 9 7 6 11 12 12 12 12 12 12 12 12 11 11 10 10 10 10 11 11 11 11 11 11 12 12 13 13 13 13 13 14 14 14 15 15 15 16 15 16 15 15 15 14 14 14 14 14 14 13 13 13 13 14 14 14 13 14 15 15 14 14 13 12 11 9 6 6 6 5 7 17 17 17 16 16 16 16 15 16 17 16
10 5 6 8 6 6 10 9 12 12 12 12 12 11 12 11 11 11 11 11 10 11 11 10 11 10 11 11 12 13 13 13 12 13 13 13 14 14 15 15 14 14 14 14 14 14 14 14 14 14 14 13 13 13 13 13 13 15 15 14 15 16 15 15 14 12 11 7 5 5 6 6 5 4 16 16 16 17 17 16 15 15 16 16 17
4 5 6 5 6 8 11 9 11 12 12 11 11 11 12 11 10 11 11 11 10 11 11 10 10 10 10 11 11 12 12 13 13 12 13 13 14 14 13 13 13 13 14 14 14 14 14 14 14 14 14 13 13 12 12 13 14 15 15 16 17 17 16 15 14 13 13 6 5 5 5 5 5 4 15 16 16 16 16 16 16 15 16 16 15
5 5 5 4 5 9 11 8 10 11 11 11 10 10 10 10 8 9 11 11 10 11 11 11 10 10 10 10 11 11 12 13 13 13 13 13 13 12 12 12 12 13 14 13 14 14 15 15 15 15 15 14 14 13 13 13 14 15 16 17 18 17 16 15 13 12 8 5 5 5 5 5 4 4 13 16 16 16 16 13 11 15 16 15 15
5 4 4 4 5 9 8 8 10 11 11 11 10 10 10 9 8 10 11 10 10 10 10 10 10 10 10 10 10 11 12 12 13 12 13 13 12 12 13 13 13 13 13 14 14 14 15 15 15 16 15 15 14 15 14 15 15 14 16 17 17 16 15 14 14 11 6 5 6 6 6 9 3 5 12 16 16 16 15 14 12 12 11 15 17
4 4 4 4 5 9 9 9 7 9 10 10 10 10 11 9 8 9 10 10 10 10 10 10 9 9 9 10 10 10 11 12 12 12 13 12 12 13 13 13 13 12 13 14 14 15 15 15 16 16 16 15 15 16 16 16 15 15 17 18 17 15 14 12 10 6 6 7 6 6 7 11 5 4 14 16 16 16 15 15 15 15 15 17 17
4 4 4 3 5 9 9 10 9 9 9 9 10 11 11 9 8 8 9 9 9 9 9 9 9 9 9 9 10 10 11 11 11 12 12 12 13 13 12 12 12 12 13 14 14 15 15 15 15 16 16 15 16 16 17 17 17 17 18 17 16 15 14 13 8 7 7 7 7 6 6 6 6 9 17 17 17 16 16 16 16 17 17 17 17
3 4 4 3 3 6 9 10 9 8 8 9 10 10 10 10 9 9 8 7 8 9 8 8 7 8 9 9 9 10 10 11 10 11 12 13 13 12 12 12 12 12 13 14 14 15 15 15 15 16 16 16 16 17 18 17 18 18 17 17 16 15 14 14 7 8 7 7 7 7 6 5 5 15 17 17 16 16 16 15 16 17 17 18 18
4 5 4 4 3 6 7 9 10 8 8 8 9 10 10 9 9 9 9 8 7 8 8 7 8 8 9 9 9 9 9 10 10 10 11 12 12 12 12 11 12 12 13 14 14 15 15 15 15 16 16 16 16 18 18 17 18 18 17 17 16 14 12 9 8 7 7 8 7 7 7 6 6 16 17 16 16 15 15 15 16 17 17 17 18
6 5 5 4 4 4 7 6 7 8 8 6 6 8 9 9 8 8 9 8 7 7 7 8 8 9 8 9 9 9 9 9 10 10 11 12 12 12 11 11 12 13 13 14 14 14 14 14 15 15 16 16 16 18 18 17 17 17 17 16 16 15 12 7 7 7 7 7 6 7 8 6 14 15 17 17 16 15 14 15 16 17 16 17 18
4 5 4 4 4 3 4 5 6 8 7 5 7 7 8 8 7 8 8 8 8 8 8 8 9 8 9 8 8 8 9 10 9 11 11 12 12 12 11 11 12 12 13 14 14 14 14 14 15 15 15 16 16 17 18 17 16 16 16 15 15 14 13 7 7 7 6 7 7 7 7 6 15 16 17 18 16 15 15 15 15 15 15 15 16
8 5 5 3 5 4 3 4 4 8 7 7 6 6 7 7 7 8 7 7 7 8 8 8 8 8 8 7 7 7 7 8 10 11 12 11 12 11 10 11 12 12 13 14 14 14 14 14 15 15 15 15 16 17 17 17 16 16 15 15 15 15 13 9 7 6 6 7 6 7 7 6 12 16 17 16 15 15 15 14 15 15 16 15 16
8 7 7 5 6 5 1 3 3 4 5 2 2 2 5 7 7 8 8 8 7 8 8 7 7 7 7 6 7 7 7 8 9 10 10 10 11 10 10 11 12 12 12 14 14 14 15 15 15 16 16 16 17 17 18 17 17 16 16 15 15 15 13 10 8 7 7 7 8 6 7 12 13 15 15 14 14 14 14 15 15 15 15 15 15
8 7 6 9 10 8 8 3 3 4 4 5 4 2 1 2 6 7 7 8 8 8 8 8 7 7 7 7 7 8 8 8 9 9 9 10 9 8 8 9 11 11 12 13 14 14 15 15 16 16 16 17 17 17 18 17 16 16 16 14 14 13 12 8 7 8 8 7 7 7 8 17 13 14 15 14 14 13 12 11 12 13 13 13 15
7 7 8 8 7 7 5 4 5 3 5 5 5 4 3 4 3 4 7 8 8 8 8 7 8 7 7 7 8 7 6 7 10 9 10 10 9 7 8 9 11 11 11 13 13 14 15 15 15 15 15 16 16 16 16 17 16 15 14 14 12 10 8 6 7 8 7 7 7 7 12 18 17 16 17 17 15 18 18 17 18 18 16 14 13
5 7 5 5 4 5 5 6 7 8 4 5 5 4 3 5 4 4 5 7 7 8 8 8 8 6 6 6 6 5 4 4 6 6 9 8 9 9 8 9 10 10 11 12 12 12 14 15 15 15 14 14 12 13 14 15 15 14 14 12 11 9 7 7 7 7 7 7 8 7 17 17 17 17 17 18 19 19 17 17 17 17 17 14 12
4 5 6 5 5 4 5 5 5 6 6 3 3 3 3 4 4 3 4 5 6 7 6 5 6 5 6 4 3 4 4 3 4 6 6 8 8 11 9 8 9 8 10 12 12 12 14 15 15 14 13 12 11 8 8 11 13 13 12 11 9 7 7 7 8 7 8 7 7 11 17 17 17 17 17 17 18 18 18 19 20 19 19 18 16
3 5 4 6 5 4 5 4 4 4 4 4 1 3 4 3 3 3 3 4 5 5 6 5 4 5 4 4 3 3 4 4 4 4 5 7 8 9 9 9 9 9 11 12 12 12 13 13 14 13 12 11 7 6 6 6 7 10 9 8 7 7 8 8 8 8 8 7 7 15 17 18 18 18 18 18 18 18 17 18 19 20 20 19 18
2 2 4 4 4 4 5 4 3 3 2 2 3 3 3 4 3 4 3 4 4 4 4 4 4 4 4 3 3 4 4 4 4 5 7 5 5 7 9 8 8 10 11 9 9 10 12 12 12 11 8 6 6 6 6 6 6 6 7 7 7 7 8 8 7 8 8 8 8 17 18 19 19 19 18 19 18 18 17 19 20 20 20 20 19
2 3 2 4 4 4 4 4 4 3 4 3 2 1 5 5 4 4 4 3 4 4 3 4 4 3 4 3 4 4 4 3 4 4 5 5 5 4 5 4 4 6 7 6 5 5 6 6 6 7 6 6 7 6 6 6 6 7 7 7 8 8 8 8 8 8 8 8 11 18 19 19 19 19 19 19 19 19 18 19 20 19 20 20 20
1 2 3 4 4 4 4 4 4 2 2 1 3 3 2 5 5 5 4 4 4 5 4 3 4 3 2 3 3 4 3 4 4 4 4 6 6 5 4 5 5 5 4 5 5 5 5 4 5 6 6 6 6 6 5 6 7 7 7 7 8 8 8 8 8 8 8 8 12 20 20 19 19 19 19 19 19 19 19 19 19 20 19 19 19
2 2 2 3 4 3 3 3 3 2 2 2 1 1 1 3 5 5 5 4 4 5 4 3 5 4 3 2 4 4 3 3 4 2 1 2 6 5 5 4 5 5 4 5 4 5 4 5 5 5 6 7 6 6 6 6 6 8 8 8 8 8 8 8 8 8 8 9 12 22 20 21 22 21 21 21 20 20 19 19 20 20 19 19 20
2 3 3 3 4 4 4 3 3 2 1 1 3 2 2 3 6 5 6 5 6 4 4 3 5 5 3 3 4 4 4 4 3 3 1 4 2 4 4 5 4 4 5 6 4 4 5 5 4 5 7 7 7 6 7 7 7 8 9 8 9 9 8 8 8 8 8 9 10 18 21 22 22 22 24 23 22 21 21 20 20 20 20 20 20
1 2 3 3 3 3 3 3 2 2 2 3 4 3 4 4 7 7 6 4 6 5 4 4 5 5 4 4 5 5 4 4 5 4 4 5 5 4 4 5 5 4 5 5 5 5 5 5 6 6 6 7 7 6 7 8 8 8 9 9 9 9 9 9 9 9 8 8 9 15 22 22 22 23 23 24 23 23 23 23 22 21 22 21 21
1 2 3 2 3 4 2 1 2 4 4 5 3 5 5 8 7 7 5 6 6 4 6 6 4 5 5 5 6 6 5 5 4 5 6 6 6 5 6 6 6 5 5 6 5 6 6 6 5 6 8 8 7 5 7 8 9 8 9 9 9 8 8 9 9 8 8 8 9 11 19 21 23 23 23 23 24 24 23 23 24 23 22 22 21
2 3 2 3 3 3 2 0 2 4 5 6 4 6 7 7 6 7 6 7 5 4 6 6 4 5 6 7 6 6 6 5 5 6 6 6 6 5 5 5 7 6 6 6 5 7 6 6 6 6 7 8 6 5 7 8 8 9 8 10 8 8 8 8 8 8 9 8 8 8 11 19 21 22 23 23 24 24 24 23 24 24 23 21 20
3 1 2 3 2 3 2 2 2 5 8 7 5 8 6 5 7 5 5 6 4 5 6 6 5 5 6 7 6 6 7 6 7 6 7 7 6 7 6 6 6 6 7 5 7 6 7 7 7 6 7 7 7 6 6 9 9 7 9 9 8 9 8 7 8 8 8 8 8 8 8 10 17 21 22 23 23 24 24 23 23 23 23 23 23
1 1 2 1 2 3 2 3 3 6 9 8 5 7 7 6 5 6 6 5 4 5 6 6 6 6 6 7 6 7 6 7 6 7 8 7 6 8 7 7 5 5 6 8 9 7 7 7 7 5 7 7 8 8 8 8 9 8 9 8 8 8 7 8 7 8 8 8 8 8 8 8 9 14 19 21 22 23 23 24 23 23 23 23 23
2 0 0 1 1 1 2 3 4 7 8 7 6 7 7 6 5 7 6 5 5 5 7 6 5 5 6 7 7 7 7 6 7 7 7 8 7 7 8 7 6 5 6 6 8 7 7 8 7 7 7 8 8 6 8 9 7 8 8 7 8 7 7 8 7 7 7 7 7 8 7 8 8 8 9 15 20 22 23 24 23 23 23 23 23
1 1 2 2 3 3 2 5 4 8 8 8 7 7 8 6 6 6 5 4 6 6 5 6 5 4 5 8 8 6 6 6 5 8 7 7 8 8 7 6 6 6 7 6 5 6 6 7 5 9 7 8 8 6 8 8 9 9 7 7 7 6 7 7 7 7 7 6 8 7 7 8 8 8 8 8 11 18 21 23 23 23 23 23 23
2 2 3 3 4 4 4 5 6 8 7 8 7 7 9 6 7 6 5 6 6 5 4 5 6 5 8 8 7 7 6 7 6 6 8 6 7 7 6 5 6 6 7 6 6 7 7 7 6 5 10 7 9 8 7 9 9 8 6 7 6 7 7 7 7 7 6 7 7 7 7 7 7 8 8 8 8 10 20 20 22 23 23 23 23
3 3 3 5 5 5 5 6 7 8 8 8 8 7 10 7 8 6 7 8 6 4 5 6 6 6 8 7 6 6 7 7 6 6 8 7 7 7 6 6 5 8 7 6 7 5 7 8 7 6 7 8 9 9 8 9 8 7 7 7 6 7 7 6 6 5 5 8 7 7 7 8 7 8 8 8 8 7 12 19 19 20 21 23 23
3 3 3 5 6 5 5 5 6 6 8 8 7 7 9 7 8 5 7 9 6 5 6 5 5 8 7 7 6 7 7 7 6 7 8 7 6 7 6 6 7 7 8 8 7 5 5 8 9 6 6 8 8 9 9 8 7 7 7 7 6 7 6 6 6 6 7 7 7 8 6 6 7 8 8 8 8 8 8 12 16 17 19 21 23
3 3 4 4 5 6 6 6 6 6 8 8 8 9 9 8 8 7 7 8 6 6 5 6 6 7 6 6 6 6 6 6 6 6 8 7 7 6 7 6 6 7 8 8 6 6 7 8 11 9 8 7 7 7 8 8 8 7 7 6 6 6 5 5 6 7 7 6 6 5 5 8 7 7 8 8 7 8 9 8 8 8 10 20 20
4 5 5 5 5 7 6 6 6 7 7 6 6 8 7 7 8 7 8 7 7 6 6 6 6 7 6 6 6 6 6 6 6 6 7 7 7 6 6 5 6 7 8 8 6 6 9 11 8 11 10 8 7 6 5 9 8 8 7 6 5 5 6 6 7 7 6 7 6 6 7 6 8 7 7 7 7 7 8 8 8 8 8 12 19
5 6 6 6 6 7 8 7 6 6 7 7 5 7 9 8 6 6 7 5 7 5 5 6 6 5 6 6 6 5 6 7 6 6 7 8 7 7 7 7 6 7 8 7 6 7 6 7 7 6 9 10 6 4 3 3 9 6 5 5 6 4 4 6 7 6 6 6 6 7 6 7 7 7 7 6 7 7 7 8 8 7 8 7 10
5 5 7 7 6 6 8 8 7 6 5 5 5 5 4 4 7 7 7 7 6 3 4 4 5 6 7 6 6 5 5 6 5 6 6 7 8 7 7 7 6 7 7 6 6 5 5 6 7 8 5 6 4 3 4 1 3 5 6 3 2 2 2 6 7 5 5 6 6 8 7 8 8 7 7 7 7 7 7 7 7 8 8 8 8
7 6 6 7 7 6 6 7 7 6 5 5 5 5 5 6 5 6 5 8 6 4 5 5 6 7 6 6 6 5 5 6 6 6 7 7 7 8 7 5 5 6 8 7 7 7 6 6 5 9 7 4 5 5 5 2 3 2 2 5 0 0 1 3 2 4 5 5 5 7 6 7 7 5 6 6 7 7 6 7 7 8 8 8 7
6 6 7 8 7 6 7 6 6 5 6 5 6 7 8 9 9 7 7 6 8 6 7 7 7 7 6 6 6 5 6 7 7 6 6 7 6 8 6 6 6 4 7 8 7 6 6 5 6 5 8 6 3 6 5 4 3 5 2 0 1 1 1 0 2 1 2 1 5 5 5 6 6 6 5 7 7 6 6 6 7 7 7 7 7
7 8 8 8 6 8 7 7 6 7 6 8 9 10 11 10 9 10 9 10 7 6 7 7 5 6 6 7 6 6 6 6 7 6 6 8 6 6 7 6 6 5 6 8 7 6 4 4 4 4 3 8 4 2 6 6 7 3 5 3 1 1 1 1 2 1 3 2 5 4 5 7 7 6 6 6 4 6 6 7 6 6 6 7 7
8 7 7 7 8 7 7 7 6 6 8 9 10 9 10 13 11 10 8 7 7 5 6 9 7 6 6 4 6 6 4 6 6 6 6 6 7 6 6 7 7 6 6 7 6 6 6 6 4 4 6 4 9 4 4 4 6 8 7 3 0 2 3 2 1 0 3 1 3 4 6 8 6 6 6 7 8 6 5 6 5 6 6 6 7
8 7 7 7 7 7 8 8 8 7 6 9 9 8 8 6 9 12 13 12 11 2 3 3 6 5 5 7 5 5 4 6 6 5 6 6 7 7 7 7 7 7 6 7 7 6 5 4 4 7 5 4 5 7 7 4 5 8 6 6 9 6 3 3 0 2 2 2 4 5 5 7 6 6 7 6 7 7 6 5 6 5 5 6 7
8 6 7 7 8 8 9 8 7 8 8 9 9 7 9 8 7 7 8 8 10 10 7 5 3 6 7 7 5 5 4 4 6 5 5 6 7 7 7 8 8 6 7 7 7 5 6 5 6 5 6 6 4 8 5 2 6 2 4 7 7 7 7 7 3 1 2 0 3 3 1 6 5 3 3 4 7 7 6 7 6 6 5 6 6
9 8 8 9 8 7 8 8 8 8 8 9 9 7 5 6 8 9 8 5 7 9 7 5 6 5 9 5 6 5 5 4 4 6 5 6 6 8 7 8 8 6 6 6 5 5 6 6 6 7 7 6 6 4 6 5 6 5 4 4 5 5 5 4 3 3 2 1 3 1 5 4 3 2 4 3 5 6 4 4 4 3 5 5 6
8 7 7 8 8 9 9 10 9 8 9 9 7 5 6 7 8 9 14 9 7 7 7 7 6 5 8 6 5 5 5 5 5 4 6 5 7 7 7 7 7 6 6 6 6 7 6 7 6 7 7 8 5 6 7 5 5 3 2 4 4 2 4 4 4 3 2 2 1 3 3 5 8 5 2 4 4 4 4 5 4 5 5 6 6
8 9 8 9 9 9 10 11 11 8 9 9 8 8 7 7 8 11 15 15 11 11 10 8 7 6 8 6 6 5 4 5 5 5 5 5 6 6 7 6 6 6 6 6 6 7 6 7 7 8 8 8 7 8 7 4 5 6 6 6 6 5 3 2 1 3 2 1 3 3 2 2 3 6 5 6 7 4 2 2 3 4 4 5 5
Wind_Direction
195 152 149 163 155 154 149 138 128 127 126 123 120 119 118 110 100 98 98 103 107 105 101 102 103 101 103 103 98 94 91 89 87 86 81 77 74 70 67 65 63 61 60 59 59 60 61 61 60 59 57 53 49 44 45 44 46 46 44 45 46 53 65 65 60 54 51 53 53 53 52 55 54 51 50 49 46 42 39 38 37 32 32 31 39
157 134 143 150 159 146 140 130 130 129 128 124 123 123 114 105 108 105 101 102 101 103 104 105 105 105 103 100 97 95 95 94 90 86 82 79 76 72 69 66 62 58 58 56 56 54 55 55 55 54 53 52 49 45 44 44 44 44 45 46 57 67 70 67 62 60 60 57 55 52 52 55 55 52 50 49 48 44 39 38 37 35 28 36 36
128 131 142 126 150 149 147 151 141 133 129 126 123 119 118 111 111 113 110 108 102 102 106 106 105 108 104 102 99 99 97 95 95 92 87 83 78 73 69 65 60 55 53 53 53 52 51 50 49 48 46 45 45 43 42 44 44 44 46 54 62 73 75 67 63 62 63 61 57 53 47 47 53 53 51 49 49 46 40 38 37 36 32 34 36
137 148 142 151 166 148 138 174 152 135 130 126 124 124 120 118 117 116 113 107 102 98 101 105 103 101 102 100 103 102 100 98 96 94 91 86 81 76 69 63 58 53 50 49 48 49 50 50 49 47 45 43 42 41 41 43 44 46 48 53 69 80 78 72 68 65 62 61 59 55 49 40 46 52 51 49 46 44 41 38 36 36 34 32 33
151 143 131 140 171 174 146 218 161 137 132 131 130 130 127 122 116 112 110 109 112 104 101 104 105 100 98 100 100 101 101 100 98 95 89 85 82 77 69 61 56 52 49 48 48 47 49 51 52 51 47 45 43 42 41 42 46 48 48 53 71 85 82 77 72 66 61 57 52 48 45 42 45 52 51 48 45 40 39 38 36 35 33 32 30
154 148 137 177 172 185 155 181 149 140 135 134 133 133 130 126 121 116 113 113 118 114 106 100 98 97 98 98 101 103 99 96 98 94 86 81 78 73 67 61 57 53 51 51 50 50 50 52 54 56 54 51 48 44 42 44 46 47 49 59 76 86 83 77 71 65 58 52 45 43 39 39 43 47 53 49 43 40 37 37 36 34 32 30 28
155 144 153 153 168 160 154 172 143 138 137 138 136 134 133 129 128 124 120 117 116 112 106 98 94 96 99 101 104 103 101 100 98 91 87 83 78 72 66 62 59 56 55 54 53 51 50 51 53 55 57 56 56 54 49 47 48 48 53 62 80 86 79 73 68 62 58 50 44 40 39 38 34 43 55 50 45 41 37 35 35 35 33 30 27
144 148 156 152 153 154 161 177 146 143 140 140 139 136 135 133 130 127 123 120 120 119 110 103 98 99 103 104 104 104 105 106 100 95 88 83 77 74 68 64 62 59 57 55 54 53 52 50 49 50 50 52 54 57 58 55 53 56 62 71 83 81 74 70 67 66 63 50 43 41 40 38 32 31 62 54 49 45 39 35 34 35 35 32 28
160 151 152 148 152 156 165 166 145 145 140 140 139 138 136 133 127 125 127 125 126 126 122 115 110 107 110 109 109 109 109 106 102 98 94 88 85 81 74 67 61 57 56 55 54 54 53 51 49 48 49 49 52 53 55 54 55 64 75 85 86 81 75 71 65 62 54 43 36 42 44 33 37 37 62 60 53 47 42 38 30 33 33 33 33
159 147 150 153 155 158 156 149 154 147 146 146 144 142 137 133 131 133 131 129 128 127 125 122 114 114 111 111 108 109 108 107 101 100 100 96 89 79 71 64 57 54 53 53 54 54 54 53 51 50 50 52 54 54 50 49 56 67 81 86 84 79 72 70 66 58 45 35 28 19 34 43 18 42 58 58 57 49 42 39 39 36 34 36 34
154 148 147 154 159 161 156 150 159 153 151 148 148 143 138 139 137 137 133 131 130 128 127 122 118 112 109 108 108 107 107 106 103 102 99 93 84 77 71 64 59 55 54 54 55 55 56 55 54 52 53 56 57 54 47 50 56 67 79 79 77 72 68 61 55 44 40 37 30 19 7 22 29 47 51 52 48 49 44 38 37 35 35 35 35
155 137 140 152 168 163 158 150 168 154 156 153 152 148 143 144 142 137 133 132 132 127 120 117 112 108 108 108 109 110 111 110 106 104 100 96 88 83 76 69 63 58 56 56 55 55 57 57 57 57 58 59 59 51 50 52 62 70 71 65 63 58 52 49 48 42 39 35 32 19 18 11 27 47 49 47 43 44 44 39 38 35 34 34 34
137 141 133 131 158 179 162 159 159 162 162 158 156 148 148 148 143 135 133 130 126 119 112 112 112 111 105 105 109 112 115 117 112 108 106 98 92 86 79 72 66 61 58 57 56 56 57 59 60 61 62 62 55 53 52 55 64 64 60 58 54 52 50 46 40 38 33 30 28 18 17 9 26 50 49 49 47 46 42 40 38 38 32 33 32
146 140 143 141 152 184 177 162 160 162 166 163 154 151 151 150 147 139 135 134 127 125 118 116 111 111 107 109 112 116 119 122 119 115 106 99 91 85 80 73 68 63 61 61 60 59 60 61 63 65 64 61 57 57 56 55 58 60 59 56 53 50 46 45 41 37 33 27 21 15 10 6 42 49 49 52 48 46 44 39 39 39 36 34 34
137 139 143 141 157 172 167 164 163 165 157 162 152 149 152 151 147 145 137 127 128 126 120 115 117 115 120 119 122 128 129 130 123 114 107 98 94 89 84 79 72 69 67 65 63 62 63 65 66 66 65 64 60 59 59 59 59 58 58 56 52 49 47 48 40 34 29 21 15 14 9 352 46 43 46 48 43 44 44 38 39 39 37 37 36
78 114 123 135 140 152 166 161 176 153 145 154 174 156 151 146 148 146 141 133 135 134 122 122 118 121 124 125 127 129 132 130 122 119 107 103 101 95 90 83 78 73 71 70 67 64 64 67 68 67 66 65 63 61 62 62 61 59 57 55 53 49 45 49 43 34 23 17 12 12 3 353 48 47 44 47 48 44 44 40 35 36 34 39 36
32 40 75 97 137 157 147 162 162 164 148 185 186 142 145 142 148 143 139 134 137 132 131 129 124 125 128 125 121 120 124 128 125 116 112 111 105 102 96 89 84 81 77 75 71 67 67 69 68 65 64 63 62 62 64 65 64 61 59 54 52 49 45 44 44 31 24 19 15 7 359 344 52 45 44 45 46 45 42 44 36 33 31 33 39
38 40 50 32 47 20 69 155 182 152 152 100 75 91 133 146 151 143 141 136 141 139 136 134 132 123 120 117 117 117 119 116 117 117 115 111 108 105 101 97 93 89 83 79 74 68 67 66 65 63 62 61 61 61 63 62 61 60 57 53 51 47 43 42 41 28 24 21 15 4 0 359 51 48 48 48 42 39 37 35 31 30 30 23 35
29 36 27 33 23 15 10 308 185 159 146 159 177 96 147 142 154 145 143 140 138 140 140 137 125 120 115 112 113 115 117 115 119 117 113 106 101 98 98 97 96 93 89 82 77 71 66 65 63 62 61 61 61 61 61 61 61 60 59 56 51 47 43 41 37 32 26 22 12 10 357 11 36 49 39 41 40 37 37 30 24 23 23 28 27
34 18 22 26 18 15 359 329 18 343 175 159 166 148 168 135 132 135 158 144 137 137 133 120 114 112 113 112 111 110 108 110 108 112 115 111 109 110 103 98 97 95 90 86 79 76 70 66 65 64 61 61 59 59 60 62 62 62 60 58 54 48 46 44 40 37 30 22 14 6 19 21 21 36 35 31 35 35 26 21 26 19 20 15 27
21 29 28 15 5 17 329 19 9 10 318 139 147 159 150 145 119 143 161 135 129 131 117 110 108 101 102 104 109 99 80 97 106 117 118 117 123 117 109 104 103 98 92 85 80 77 76 74 72 67 61 56 50 51 52 58 58 59 58 54 51 49 44 45 41 37 33 23 17 12 29 28 25 30 27 29 28 27 31 31 30 31 26 21 11
355 356 8 5 9 349 360 23 14 358 316 48 125 152 140 178 166 177 156 134 130 124 123 124 121 105 102 107 98 100 98 111 117 129 131 133 132 128 118 115 110 103 93 84 76 76 80 81 78 72 64 58 53 51 47 50 51 53 53 52 51 46 42 44 43 36 30 20 17 23 36 36 35 36 34 33 31 28 25 26 26 27 36 29 17
6 354 346 359 354 327 349 5 357 328 322 22 45 140 146 170 160 155 109 127 121 128 127 136 135 127 134 122 126 125 136 134 141 149 142 143 137 134 128 126 120 103 91 85 83 81 79 80 78 73 66 58 55 56 55 54 51 46 48 51 51 43 42 41 42 36 28 21 18 27 39 43 42 42 43 40 38 34 30 31 30 30 35 39 35
322 316 314 322 344 345 332 323 327 314 358 31 326 186 162 172 170 158 153 138 127 142 121 114 129 145 150 146 144 149 137 150 150 141 128 127 130 122 119 106 96 92 85 81 75 79 76 72 72 69 64 59 57 54 57 55 57 54 52 51 53 46 46 42 41 36 28 19 20 28 36 43 43 42 43 41 40 37 35 34 35 33 31 34 34
277 295 324 332 332 330 321 324 328 339 356 346 352 268 188 179 184 157 147 129 124 116 122 134 128 133 137 143 161 133 149 157 138 152 149 133 126 124 117 108 97 87 81 88 85 78 76 75 71 68 64 64 59 48 56 60 55 56 54 50 53 51 49 44 43 40 29 20 25 30 34 39 41 41 42 43 42 40 37 34 34 34 33 32 30
303 22 329 323 322 313 300 294 305 310 283 288 297 283 282 188 173 131 133 132 131 132 130 141 135 124 100 139 159 157 161 146 151 153 166 150 142 143 138 126 112 99 89 93 90 88 77 76 85 84 75 69 63 57 49 60 63 60 57 52 53 54 53 49 45 44 34 29 27 32 34 35 39 42 42 44 42 40 37 35 35 34 34 33 30
343 327 319 312 300 303 300 291 282 285 267 279 246 328 225 178 154 147 128 117 109 113 107 118 106 97 97 117 129 114 102 114 122 106 83 138 144 148 138 115 111 109 100 94 81 91 97 82 69 81 79 70 56 47 48 48 54 65 61 58 57 58 55 52 49 46 39 36 31 31 36 38 38 40 42 41 40 37 36 36 35 35 34 34 33
12 317 322 304 288 295 290 291 284 254 269 132 72 58 59 113 101 86 97 112 101 89 101 107 102 88 85 85 90 91 104 104 115 109 96 66 66 105 101 96 88 90 97 97 85 70 66 58 63 63 73 69 60 42 48 50 53 63 68 61 59 57 56 54 52 46 42 37 35 30 35 36 38 40 41 41 39 38 36 35 35 35 35 35 35
323 309 304 304 315 309 306 312 293 220 152 111 94 94 86 96 86 87 78 87 95 94 92 78 90 96 81 83 91 93 82 84 91 88 90 83 57 57 87 93 88 87 98 87 81 67 65 63 57 66 67 66 53 50 56 54 58 61 70 64 59 57 55 54 50 46 42 42 38 32 35 36 37 39 39 39 39 38 38 36 35 34 34 33 33
264 283 290 292 289 295 308 328 226 163 129 105 106 98 91 79 78 81 91 77 70 87 94 77 76 99 88 86 84 91 88 90 87 84 91 87 90 81 81 82 81 65 68 71 69 79 79 74 68 76 75 70 56 33 62 65 63 63 64 68 60 60 56 56 52 49 48 44 39 32 30 36 37 37 38 39 40 39 39 38 37 36 33 32 31
258 255 292 301 302 310 353 342 218 141 111 98 91 95 84 84 86 95 70 81 72 89 75 87 78 79 94 79 77 83 93 88 90 90 90 90 83 76 77 84 86 82 78 76 69 82 79 76 65 66 75 74 63 42 68 73 68 65 65 67 63 63 59 58 58 53 49 42 41 37 28 30 35 35 35 38 39 40 39 38 38 36 35 33 33
224 241 276 293 325 351 17 28 99 105 101 92 91 99 81 76 89 80 79 77 70 86 81 74 76 76 70 85 81 84 87 79 86 89 94 93 93 91 82 79 83 89 92 91 85 80 83 75 70 73 80 78 75 64 63 77 69 67 68 67 65 65 61 60 58 54 51 47 41 37 35 28 28 32 32 32 36 38 39 38 36 35 35 34 35
245 255 287 328 4 5 23 40 87 98 100 97 92 96 91 84 88 98 84 84 83 80 87 76 70 76 79 80 81 85 82 97 89 94 97 91 92 91 84 78 72 76 88 94 88 80 76 79 68 65 72 78 76 74 72 70 74 66 68 65 68 64 63 62 57 53 51 47 42 38 37 32 29 26 26 28 27 33 36 36 35 34 34 33 33
219 281 87 53 18 18 26 59 76 96 94 95 91 91 87 85 73 84 84 88 81 84 89 78 68 74 86 81 77 78 90 89 102 94 88 90 83 80 88 83 76 77 77 74 86 84 83 78 79 77 64 74 77 73 84 78 73 69 68 68 68 65 65 61 55 54 51 47 41 41 34 34 32 30 23 22 24 27 31 33 33 32 32 32 31
243 109 117 106 79 48 40 82 84 95 94 92 86 89 81 85 76 68 83 93 89 74 85 93 85 87 91 74 60 65 76 84 85 102 90 94 93 90 80 87 91 84 81 69 80 84 82 76 77 87 77 76 80 72 84 84 79 70 63 67 68 68 61 62 54 50 47 45 46 38 35 33 30 30 26 23 17 20 26 29 31 30 29 29 30
193 154 127 106 79 56 52 82 86 92 80 86 84 81 82 78 79 66 68 68 71 74 70 87 89 80 78 74 62 64 72 76 78 88 97 90 93 92 91 95 94 87 79 79 75 78 85 78 52 81 98 82 89 77 80 85 77 75 67 66 65 64 65 56 53 52 43 51 44 37 33 31 29 29 26 24 22 16 22 25 28 27 25 26 27
164 152 136 113 97 81 77 83 92 98 94 88 85 88 84 77 77 67 69 65 62 75 76 70 80 84 74 79 70 71 72 74 78 83 93 91 90 90 87 90 92 89 82 75 73 71 84 91 66 47 91 109 97 97 83 84 84 78 72 69 59 65 59 54 50 50 47 51 41 37 33 27 27 27 25 23 22 19 17 22 24 24 21 24 26
145 144 148 126 119 108 92 93 88 93 100 100 98 95 90 86 81 61 73 71 60 53 61 70 81 76 75 77 80 79 74 76 79 89 93 91 92 98 95 88 90 91 88 79 72 69 77 94 89 58 69 99 101 101 97 90 89 84 72 68 62 65 60 56 52 49 50 45 41 37 28 26 29 25 23 24 21 17 19 16 19 20 18 21 24
147 147 128 117 113 112 106 100 100 96 98 106 112 96 92 87 84 74 70 74 67 57 60 70 64 74 73 77 79 85 83 82 86 95 101 99 92 86 89 85 87 88 85 85 84 84 85 81 98 91 68 66 93 94 107 104 92 84 76 63 66 64 62 59 53 52 46 45 43 32 31 29 29 25 22 21 18 20 18 17 17 17 12 17 22
154 146 133 128 123 121 117 111 119 116 109 116 120 105 101 103 102 97 77 70 59 60 52 63 65 70 67 74 77 81 86 89 90 93 98 100 97 85 81 74 80 89 92 89 88 87 99 95 87 102 96 76 58 67 88 103 87 79 77 61 52 59 61 61 57 52 50 42 37 33 33 21 30 22 23 16 20 18 20 17 20 16 16 14 20
151 151 141 139 148 141 135 134 135 133 136 135 128 127 126 112 84 92 104 95 81 60 65 65 54 60 64 68 72 78 88 91 86 95 99 99 93 92 89 76 79 85 88 91 92 88 80 98 98 67 97 97 53 19 18 77 110 80 63 67 53 27 57 67 60 49 43 35 37 43 27 30 24 23 12 14 21 20 20 19 16 18 18 19 14
167 165 154 154 151 147 141 140 141 141 135 129 128 109 97 114 134 133 125 102 94 76 75 39 66 66 61 62 67 66 77 83 86 91 91 99 103 95 87 89 88 90 90 90 84 84 89 92 110 78 27 89 68 1 334 65 41 134 132 101 41 0 47 58 61 39 34 34 35 36 27 27 20 13 7 16 17 18 18 17 18 19 20 21 19
166 169 157 150 150 150 147 146 146 142 129 119 113 112 103 95 106 119 117 102 64 59 76 75 74 73 60 57 55 57 72 79 78 79 93 91 97 100 94 94 87 102 98 81 79 73 71 79 86 116 101 58 88 28 9 21 145 123 116 91 133 81 296 5 12 39 27 33 31 41 29 25 14 15 6 19 18 10 13 15 21 21 19 21 21
163 159 161 159 155 155 156 146 136 127 124 118 111 96 94 91 83 91 77 78 114 94 85 75 75 78 52 57 49 54 60 82 76 80 88 86 91 99 100 89 81 74 101 100 84 78 73 75 85 89 116 91 49 34 11 11 104 132 103 101 187 108 355 329 355 294 358 5 41 34 32 26 8 6 19 24 6 6 11 15 24 18 18 21 24
170 168 165 163 158 161 157 141 135 133 123 127 125 121 112 100 100 90 90 94 79 89 91 69 59 81 81 63 53 54 62 76 80 81 89 95 87 92 96 90 84 64 77 87 82 86 77 74 69 80 56 126 101 113 24 24 45 15 142 104 39 31 203 245 35 279 357 5 2 17 30 22 15 5 8 8 18 14 8 13 21 17 18 22 23
174 171 165 158 153 153 147 136 123 124 133 133 138 140 141 138 135 124 117 111 113 124 128 135 128 106 101 97 68 55 68 80 80 85 86 92 93 89 90 89 80 71 72 83 86 72 56 62 41 88 79 48 126 113 86 33 59 45 50 81 132 172 175 247 92 251 327 73 332 18 27 10 2 5 1 8 6 6 14 7 18 15 16 26 22
173 162 154 150 151 149 148 147 143 136 135 140 146 142 142 152 149 143 144 145 134 72 52 56 112 109 104 92 83 61 53 90 81 85 90 93 94 89 91 92 89 84 77 81 75 75 68 57 41 67 69 84 96 99 106 114 60 39 36 55 59 50 92 115 102 81 6 319 23 12 354 1 349 358 359 353 357 358 358 8 5 18 21 29 25
161 158 153 149 154 156 149 146 145 147 154 155 158 164 154 155 136 122 127 137 141 142 139 122 100 115 102 96 92 76 64 72 97 90 95 99 103 98 98 93 89 80 87 89 100 102 93 67 69 73 64 53 75 114 120 14 103 38 21 50 52 45 42 57 77 139 145 240 304 338 334 343 335 323 343 342 352 349 346 356 357 9 24 29 25
160 164 163 156 152 150 146 144 150 152 160 167 164 172 169 156 144 131 111 75 111 122 122 117 120 118 107 97 97 95 86 72 82 99 94 100 100 104 99 97 98 99 101 101 96 93 91 95 82 72 76 60 58 79 93 83 95 134 118 69 65 74 65 69 43 58 116 140 286 289 313 316 319 316 316 345 335 335 352 347 335 9 35 32 26
163 162 157 151 153 152 153 155 158 162 168 170 171 160 154 148 146 139 126 126 123 117 125 129 128 131 114 116 112 109 105 94 83 89 96 93 98 98 99 104 107 108 101 104 102 91 89 87 86 90 87 81 62 73 87 89 81 63 77 136 91 41 41 30 28 37 26 86 131 303 333 353 349 305 315 326 332 331 341 343 349 28 33 38 25
161 161 161 162 160 160 160 165 166 165 170 171 166 162 156 164 151 144 138 140 146 142 138 138 136 134 129 131 128 121 109 108 102 82 86 96 92 93 102 102 102 104 103 101 100 102 95 91 89 84 77 89 86 89 85 80 91 75 59 71 76 82 128 117 96 25 93 59 20 330 312 282 256 300 295 331 328 334 338 349 26 23 50 36 29